Tracking 20093 objects as of 16-Dec-2019
HD Live streaming from Space Station
objects crossing your sky now

COSMOS 1275 DEB

Track COSMOS 1275 DEB now!
10-day predictions


NORAD ID: 13816
Int'l Code: 1981-053HP
Perigee: 855.1 km
Apogee: 1,086.4 km
Inclination: 83.0 °
Period: 104.3 minutes
Semi major axis: 7341 km
RCS: 0.0104 m2 (small)
Launch date: June 4, 1981
Source: Commonwealth of Independent States (former USSR) (CIS)
Launch site: PLESETSK MISSILE AND SPACE COMPLEX (PKMTR)

Note: This is SATELLITE DEBRIS
aabbcc
Your satellite tracking list
Your tracking list is empty




NASA's NSSDC Master Catalog

Two Line Element Set (TLE):
1 13816U 81053HL  19348.94502969 +.00000470 +00000-0 +39701-3 0  9999
2 13816 082.9876 046.3857 0157518 079.1631 093.4693 13.80072192831805
Source of the keplerian elements: AFSPC